Flag for United Kingdom Weather past 2 weeks in Huddersfield, England, United Kingdom

Now
41 °F

Broken clouds.


Feels Like: 36 °F
Forecast: 38 / 46 °F
Wind: 8 mph from West

Location: Leeds And Bradford

Current Time: Jan 27, 2015 at 9:31:58 AM

Latest Report: Jan 27, 2015 at 8:50 AM


Visibility: N/A

Pressure: 30.24 "Hg

Humidity: 100%

Dew point: 41 °F

Location of HuddersfieldLocation

Historic Weather in Huddersfield — Graph

°F

Huddersfield temperature yesterday

Maximum temperature yesterday: 46 °F (at 12:20 AM)
Minimum temperature yesterday: 37 °F (at 5:50 PM)
Average temperature yesterday: 41 °F

Past Weeks' High & Low Weather Summary

 TemperatureHumidityPressure
High48 °F (Jan 12, 9:20 AM)100% (Jan 13, 9:20 PM)30.36 "Hg (Jan 13, 9:20 PM)
Low28 °F (Jan 18, 6:50 AM)70% (Jan 12, 3:20 PM)28.77 "Hg (Jan 15, 1:20 AM)
Average36 °F92%29.78 "Hg
* Reported Jan 12 8:20 AM — Jan 27 8:20 AM, Huddersfield, Weather by CustomWeather, © 2014

Note: Actual official high and low records may vary slightly from our data, if they occured in-between our weather recording intervals... More about our weather records

Advertising

Huddersfield weather history for previous 24 hours

 ConditionsComfort  
Time TempWeatherWind HumidityBarometerVisibility
8:20 AM
Jan 27
41 °FPartly sunny.12 mph93%30.27 "HgN/A
7:50 AM41 °FPassing clouds.15 mph93%30.24 "HgN/A
7:20 AM41 °FPassing clouds.8 mph93%30.24 "HgN/A
6:50 AM41 °FPassing clouds.10 mph93%30.27 "HgN/A
6:20 AM41 °FPassing clouds.12 mph93%30.27 "HgN/A
5:50 AM41 °FPassing clouds.12 mph93%30.27 "HgN/A
5:20 AM41 °FPassing clouds.12 mph93%30.27 "HgN/A
4:50 AM41 °FLight rain. Passing clouds.14 mph93%30.27 "HgN/A
4:20 AM39 °FLight rain. Passing clouds.15 mph100%30.27 "HgN/A
3:50 AM39 °FLight rain. Passing clouds.13 mph100%30.27 "HgN/A
3:20 AM39 °FPassing clouds.10 mph93%30.30 "HgN/A
2:50 AM39 °FPassing clouds.12 mph93%30.27 "HgN/A
2:20 AM39 °FPassing clouds.13 mph93%30.27 "HgN/A
1:50 AM39 °FPassing clouds.12 mph93%30.27 "HgN/A
1:20 AM39 °FClear.14 mph93%30.27 "Hg10 mi
12:50 AM37 °FClear.14 mph93%30.27 "Hg10 mi
12:20 AM37 °FClear.15 mph93%30.27 "Hg10 mi
11:50 PM
Jan 26
37 °FPassing clouds.16 mph93%30.27 "HgN/A
11:20 PM37 °FPassing clouds.17 mph93%30.27 "HgN/A
10:50 PM37 °FPassing clouds.14 mph93%30.27 "HgN/A
10:20 PM37 °FPassing clouds.13 mph93%30.27 "HgN/A
9:50 PM37 °FPassing clouds.16 mph93%30.24 "HgN/A
9:20 PM37 °FClear.13 mph93%30.27 "Hg10 mi
8:50 PM37 °FClear.16 mph93%30.27 "Hg10 mi
8:20 PM37 °FClear.20 mph93%30.24 "Hg10 mi
7:50 PM37 °FPassing clouds.12 mph93%30.24 "HgN/A
7:20 PM37 °FPassing clouds.9 mph93%30.24 "HgN/A
6:50 PM37 °FPassing clouds.12 mph93%30.24 "HgN/A
6:20 PM37 °FPassing clouds.15 mph93%30.24 "HgN/A
5:50 PM37 °FPassing clouds.15 mph87%30.24 "HgN/A
5:20 PM39 °FPassing clouds.20 mph87%30.21 "HgN/A
4:50 PM39 °FPassing clouds.15 mph87%30.21 "HgN/A
4:20 PM39 °FPassing clouds.14 mph87%30.18 "HgN/A
3:50 PM39 °FScattered clouds.18 mph87%30.18 "HgN/A
3:20 PM39 °FScattered clouds.21 mph87%30.15 "HgN/A
2:50 PM41 °FScattered clouds.22 mph87%30.18 "HgN/A
2:20 PM41 °FScattered clouds.21 mph87%30.15 "HgN/A
1:50 PM41 °FScattered clouds.20 mph87%30.15 "HgN/A
1:20 PM41 °FScattered clouds.20 mph87%30.15 "HgN/A
12:50 PM41 °FSprinkles. Scattered clouds.18 mph87%30.15 "HgN/A
12:20 PM41 °FSprinkles. Scattered clouds.17 mph81%30.12 "HgN/A
11:50 AM41 °FScattered clouds.17 mph81%30.12 "HgN/A
11:20 AM41 °FScattered clouds.16 mph81%30.15 "HgN/A
10:50 AM41 °FScattered clouds.16 mph81%30.15 "HgN/A
10:20 AM41 °FScattered clouds.10 mph87%30.12 "HgN/A
9:50 AM41 °FScattered clouds.13 mph87%30.12 "HgN/A
9:20 AM41 °FScattered clouds.15 mph87%30.12 "HgN/A
Weather by CustomWeather, © 2014

See weather overviewHow to use our weather pages